User: anonymous   Login
Location: ?????
(32.7281°N, 34.9563°E)
Time: 16:47:12
(UTC+00:00)
Language:

Meteor 2-15 - Orbit

View from above orbital plane
View from above orbital plane
View from above satellite
View from above satellite

Ground track
Ground track

The orbit data is extracted from the following two-line orbital elements,

1 17290U 87001A   21016.76675903  .00000048  00000-0  29735-4 0  9990
2 17290  82.4658 245.8918 0012517 325.9074  34.1281 13.85053110720080
Epoch (UTC): 16 January 2021 18:24:07
Eccentricity: 0.0012517
inclination: 82.4658°
perigee height: 937 km
apogee height: 955 km
right ascension of ascending node: 245.8918°
argument of perigee: 325.9074°
revolutions per day: 13.85053110
mean anomaly at epoch: 34.1281°
orbit number at epoch: 72008

The dashed part of the orbit path shows where the satellite is in the earth's shadow,  

DLR